Regional Weather Roundup
Issued by NWS

Home | Current Version | Previous Version | Text Only | Print | Product List | Glossary Off
Versions: 1 2 3 4 5 6 7 8 9 10 11 12 13 14 15 16 17 18 19 20 21 22 23 24 25 26 27 28 29 30 31 32 33 34 35 36 37 38 39 40 41 42 43 44 45 46 47 48 49 50

000
ASUS43 KMPX 050901
RWRMN
WEATHER ROUNDUP FOR MINNESOTA
NATIONAL WEATHER SERVICE TWIN CITIES/CHANHASSEN MN
400 AM CDT SUN JUL 05 2015


NOTE: "FAIR" INDICATES FEW OR NO CLOUDS BELOW 12,000 FEET WITH NO
SIGNIFICANT WEATHER AND/OR OBSTRUCTIONS TO VISIBILITY. N/A MEANS
CURRENT SKY AND/OR WEATHER CONDITIONS ARE NOT AVAILABLE.

MNZ060>063-068>070-051000-
   Twin Cities Metro

CITY           SKY/WX    TMP DP  RH WIND       PRES   REMARKS
TWIN CITIES    CLEAR     70  60  70 S7        29.93S
ST PAUL        CLEAR     67  60  78 S10       29.93S
CRYSTAL        CLEAR     69  59  70 S5        29.91S
BLAINE         CLEAR     70  61  73 S6        29.94R
LAKEVILLE      CLEAR     63  61  94 S5        29.94S
EDEN PRAIRIE   CLEAR     66  59  78 SW5       29.92S
SOUTH ST PAUL  CLEAR     67  59  77 S6        29.94R
LAKE ELMO      FAIR      64  61  88 S7        29.96R
$$
MNZ001>005-007-008-013>017-022>024-027-028-051000-
   Northwest Minnesota

CITY           SKY/WX    TMP DP  RH WIND       PRES   REMARKS
BEMIDJI        CLOUDY    69  61  74 NW12G21   29.90R
HALLOCK        PTCLDY    64  63  94 S8        29.75S
ROSEAU         CLOUDY    64  59  82 SE13G22   29.78R
WARROAD        RAIN      64  61  88 E23G32    29.73F
THIEF RVR FALL CLOUDY    64  63  94 SE7       29.79F
CROOKSTON      DRIZZLE   66  64  94 SE9       29.78F
FOSSTON        TSTM      63  57  82 E7        29.86F
DETROIT LAKES  CLOUDY    70  64  83 S9        29.83F
MOORHEAD       CLOUDY    72  64  78 SE14      29.76F
PARK RAPIDS    MOCLDY    67  63  87 SE9       29.85F FOG
MAHNOMEN       PTSUNNY   71  65  81 CALM      29.83R
$$
MNZ006-009>011-018-025>026-051000-
   North Central Minnesota

CITY           SKY/WX    TMP DP  RH WIND       PRES   REMARKS
BAUDETTE       RAIN      65  61  87 SE8       29.81F FOG
INTL FALLS     LGT RAIN  66  62  87 SW5       29.83R
WASKISH        LGT RAIN  64  63  94 CALM      29.85F
BIG FORK       CLOUDY    64  63  94 CALM      29.87F FOG
LONGVILLE      MOCLDY    68  64  88 S6        29.88F
GRAND RAPIDS   MOCLDY    63  61  94 S7        29.90S
CRANE LAKE     CLOUDY    64  57  77 S6        29.86F
ORR            CLOUDY    63  57  82 S7        29.85F
COOK           MOCLDY    64  61  88 S5        29.89F
WALKER         FAIR      69  64  84 S8        29.86F
$$
MNZ012-019>021-037-051000-
   Northeast Minnesota

CITY           SKY/WX    TMP DP  RH WIND       PRES   REMARKS
DULUTH         PTCLDY    57  53  86 CALM      29.94R
ELY            MOCLDY    63  55  77 S9        29.90F
HIBBING        MOCLDY    57  56  96 SE3       29.91S
DULUTH HARBOR  PTCLDY    61  55  82 NE6       29.94R
SILVER BAY     CLEAR     54  52  94 CALM      29.92R FOG
GRAND MARAIS     N/A     51  50  96 CALM      29.91S
G MARAIS ARPRT PTCLDY    52  46  82 CALM      29.94F
$$
MNZ029>031-032-039>041-046>048-054>057-064-051000-
   West Central Minnesota

CITY           SKY/WX    TMP DP  RH WIND       PRES   REMARKS
FERGUS FALLS   MOCLDY    70  64  83 SE10      29.81F
WHEATON        PTCLDY    66  63  88 SE13      29.82R
MORRIS         MOCLDY    68  63  83 SE7       29.83R HAZE
ALEXANDRIA     PTCLDY    66  62  87 S7        29.87F
ELBOW LAKE     FAIR      67  64  89 S9        29.83F
WADENA         MOCLDY    64  63  94 SE5       29.86F FOG
GLENWOOD       PTCLDY    64  61  88 S8        29.87F
APPLETON       MOCLDY    70  63  78 SE6       29.83R
BENSON         MOCLDY    66  61  82 S7        29.85R
ORTONVILLE     MOCLDY    66  63  88 SE5       29.83R
MADISON        CLOUDY    66  63  88 SE3       29.84R
WILLMAR        FAIR      66  61  82 SE6       29.89R
$$
MNZ033>034-036-042>043-049>051-058-059-051000-
   Central Minnesota

CITY           SKY/WX    TMP DP  RH WIND       PRES   REMARKS
ST CLOUD       CLEAR     63  61  93 SE5       29.89F
SAUK CENTRE    FAIR      63  61  93 SE7       29.87F
PAYNESVILLE    CLEAR     64  60  86 E6        29.89F
AITKIN         PTCLDY    66  61  82 S3        29.89R
PINE RIVER     MOCLDY    64  63  94 CALM      29.92S FOG
BRAINERD       PTCLDY    65  62  90 S6        29.89S FOG
STAPLES        PTCLDY    66  63  88 SE5       29.87F
LONG PRAIRIE   FAIR      63  61  94 SE6       29.88F
LITTLE FALLS   PTCLDY    63  61  94 SE5       29.89S
LITCHFIELD     CLEAR     66  63  88 SE6       29.90F
BUFFALO        CLEAR     66  59  77 SE6       29.92S
MAPLE LAKE     CLEAR     66  62  87 S5        29.91F
$$
MNZ037-044-045-052-053-051000-
   East Central Minnesota

CITY           SKY/WX    TMP DP  RH WIND       PRES   REMARKS
PRINCETON      CLEAR     64  61  88 SE6       29.91F
MORA           CLEAR     64  61  88 CALM      29.93S
CAMBRIDGE      CLEAR     70  57  64 CALM      29.91S
RUSH CITY      CLEAR     65  61  86 S5        29.93R
MOOSE LAKE     PTCLDY    57  55  94 CALM      29.90F FOG
HINCKLEY       FAIR      64  63  94 CALM      29.93R FOG
CLOQUET        FOG       57  55  94 E3        29.93S VSB 1/2
MCGREGOR       PTCLDY    63  61  94 SE5       29.92R
$$
MNZ071>073-080-081-089-090-097-098-051000-
   Southwest Minnesota

CITY           SKY/WX    TMP DP  RH WIND       PRES   REMARKS
MONTEVIDEO     MOCLDY    66  63  88 S7        29.85S
GRANITE FALLS  PTCLDY    66  61  83 SE9       29.86S
CANBY          CLOUDY    72  62  71 S13G18    29.84R
MARSHALL       MOCLDY    70  59  68 S12       29.82F
REDWOOD FALLS  PTCLDY    64  60  87 SE9       29.87F
OLIVIA         PTCLDY    61  55  82 SE8       29.87S
PIPESTONE      CLOUDY    66  61  82 S12       29.87S
WINDOM         PTCLDY    66  61  82 CALM      29.90F
WORTHINGTON    MOCLDY    66  57  72 S15G21    29.89F
JACKSON        PTCLDY    64  59  82 S8        29.91F
TRACY          PTCLDY    68  62  80 S12       29.85F
SLAYTON        MOCLDY    68  62  80 S9G16     29.88F
$$
MNZ065>067-074>077-082>085-091>093-051000-
   South Central Minnesota

CITY           SKY/WX    TMP DP  RH WIND       PRES   REMARKS
MANKATO        CLEAR     64  57  77 S7        29.93S
NEW ULM        PTCLDY    63  61  94 S8        29.89F
ST JAMES       PTCLDY    64  61  88 SE9       29.91F
FAIRMONT       PTCLDY    63  55  77 S9        29.92S
GLENCOE        CLEAR     65  62  88 SE6       29.91S
FARIBAULT      CLEAR     64  61  88 S6        29.95S
OWATONNA       CLEAR     64  57  77 S10       29.95F
WASECA         CLEAR     63  57  82 S9        29.95F
ALBERT LEA     CLEAR     64  59  82 S9        29.96F
$$
MNZ078>079-086>088-094>096-051000-
   Southeast Minnesota

CITY           SKY/WX    TMP DP  RH WIND       PRES   REMARKS
ROCHESTER      CLEAR     61  58  90 S7        29.99S
RED WING       CLEAR     68  59  73 S6        29.95R
DODGE CENTER   CLEAR     64  59  82 S13       29.97F
WINONA         CLEAR     64  61  88 CALM      29.98S
AUSTIN         CLEAR     63  57  82 S3        29.97F
PRESTON        CLEAR     61  57  88 S7        30.00S
$$
ABBREVIATIONS USED IN REMARKS
   TC - TEMPERATURES IN CELSIUS
  WCI - WIND CHILL INDEX
   HX - HEAT INDEX
  VSB - VISIBILITY
$$



USA.gov is the U.S. government's official web portal to all federal, state and local government web resources and services.